Вернуться в каталог

STARLINK-38063

АктивенСвязьSSO
NORAD 69979·PAYLOAD·🇺🇸 United States

Запущен Jul 11, 2026 с Vandenberg Space Force Base

Loading…

Ближайшие Пролёты (ближайшие 24 часа)

TLE

СвежийSource: CelesTrak SupGP

Эпоха: Sep 14, 2026, 15:25 UTC

1 69979C 26159E   26257.64284722 -.02696000  00000+0 -38207-1 0  2572
2 69979  97.2843  99.4118 0001721  90.8850 167.1396 15.57872730    17

Отслеживайте STARLINK-38063 в реальном времени с AllMySat

Download on the App Store